Simultaneous Nadir Overpasses (SNOs) Predictions

Prediction of SNOs between AQUA and METOP-B Satellite Orbit:

Table of predicted SNOs for the next 14.0 days since TLE Epoch: 10/9/2018
Index Date (AQUA) Time (AQUA) Lat,Lon (AQUA) SZA (AQUA ) Date (METOP-B) Time (METOP-B) Lat,Lon (METOP-B) SZA (METOP-B ) Distance(km) Time Diff (sec)
1 10/09/2018 23:08:15 73.73,-172.60 80.18 10/09/2018 23:07:04 73.68,-173.54 80.16 29.77 71
2 10/09/2018 23:57:45 -73.96, -5.47 99.57 10/09/2018 23:57:40 -73.99, -5.47 99.54 3.77 5
3 10/10/2018 00:47:14 74.04, 161.99 80.52 10/10/2018 00:48:18 74.06, 162.03 80.55 2.89 64
4 10/12/2018 18:42:33 73.90,-106.55 81.42 10/12/2018 18:41:22 73.92,-106.58 81.44 1.92 71
5 10/12/2018 19:32:00 -73.97, 60.94 98.50 10/12/2018 19:32:03 -73.98, 60.90 98.49 1.74 3
6 10/12/2018 20:21:29 74.06,-131.61 81.60 10/12/2018 20:22:41 74.05,-131.60 81.59 1.04 72
7 10/15/2018 14:16:48 73.93, -40.17 82.49 10/15/2018 14:15:45 73.91, -40.20 82.47 3.16 63
8 10/15/2018 15:06:15 -73.99, 127.34 97.44 10/15/2018 15:06:25 -74.02, 127.39 97.41 3.15 10
9 10/15/2018 15:55:48 74.29, -65.72 82.89 10/15/2018 15:56:58 74.33, -64.49 82.91 37.32 70
10 10/18/2018 09:51:01 73.92, 26.29 83.51 10/18/2018 09:50:06 73.94, 26.30 83.54 2.47 55
11 10/18/2018 10:40:29 -74.02,-166.30 96.38 10/18/2018 10:40:47 -74.00,-166.23 96.40 3.02 18
12 10/18/2018 11:30:08 74.64, -0.12 84.28 10/18/2018 11:31:14 74.61, 2.66 84.22 81.92 66
13 10/21/2018 05:25:15 73.92, 92.74 84.52 10/21/2018 05:24:29 73.93, 92.68 84.54 2.41 46
14 10/21/2018 06:14:43 -74.01, -99.84 95.38 10/21/2018 06:15:10 -73.99, -99.86 95.40 2.76 27




NCC Satellite Simultaneous Nadir Overpasses (SNOs) Prediction Service
